Location: Praha
(50.0830°N, 14.4670°E)
Time: 09:51:09
(UTC+02:00)

ISS - Pass Details

Date: 29 April 2025
Orbit: 416 x 419 km, 51.6° (Epoch: 18 May)

Event Time Altitude Azimuth Distance (km) Brightness Sun altitude
Exits shadow 03:46:26 36° 248° (WSW) 675 -3.2 -15.8°
Maximum altitude 03:47:40 85° 162° (SSE) 424 -3.9 -15.6°
Drops below altitude 10° 03:51:02 10° 75° (ENE) 1,497 0.0 -15.3°
Sets 03:53:08 0° 74° (ENE) 2,363 1.1 -15.0°
